Wetterdaten am Flugplatz MSG Übersee

alte Datensätze gelöscht
27 aktuelle Wetterdateneinträge gefunden

Datum/Uhrzeit   Windrichtung/Grad    Geschw./kmh    Temp./C°    Luftdruck/mbar    Spannung/Volt   
2026-08-31 00:01 NW/332 11 22 1020 12,30
2026-08-31 00:11 NO/63 7 22 1020 11,94
2026-08-31 00:21 S/179 13 22 1020 12,13
2026-08-31 00:31 SW/207 20 22 1020 12,16
2026-08-31 00:41 S/197 17 22 1020 12,18
2026-08-31 00:51 S/200 16 22 1020 12,21
2026-08-31 01:01 S/184 20 22 1020 12,24
2026-08-31 01:11 S/185 27 22 1020 12,26
2026-08-31 01:21 S/191 25 21 1020 12,29
2026-08-31 01:31 S/183 28 21 1020 11,86
2026-08-31 01:41 S/187 29 21 1020 12,11
2026-08-31 01:52 S/183 29 21 1019 12,16
2026-08-31 02:02 S/172 27 21 1019 12,17
2026-08-31 02:12 S/181 26 21 1019 12,20
2026-08-31 02:22 S/188 20 21 1019 12,21
2026-08-31 02:32 S/195 25 20 1019 12,24
2026-08-31 02:42 S/187 26 20 1019 11,89
2026-08-31 02:52 S/186 28 20 1019 12,10
2026-08-31 03:02 S/182 27 20 1019 12,13
2026-08-31 03:12 S/177 29 20 1019 12,14
2026-08-31 03:22 S/188 29 20 1019 12,18
2026-08-31 03:32 S/193 29 20 1018 12,20
2026-08-31 03:42 S/189 31 20 1018 12,23
2026-08-31 03:52 SW/212 29 20 1018 11,88
2026-08-31 04:02 S/172 29 20 1018 12,07
2026-08-31 04:12 S/165 28 20 1018 12,11
2026-08-31 04:22 S/175 28 20 1018 12,14